Probability
0 0 0 0 0 0 0 0 0 0 0 0 0 0 0 0 0 0 1 2 3 3 3 3 3 3 3 3 3 2 1 0 0 0 0 0 0 1 2 1 0 0 0 0 0 0 0 0 0
0 0 0 0 0 0 0 0 0 0 0 0 0 0 0 0 0 0 0 1 2 3 3 2 3 3 3 3 3 2 1 0 0 0 0 0 0 1 1 1 0 0 0 0 0 0 0 0 0
0 0 0 0 0 0 0 0 0 0 0 0 0 0 0 0 0 0 0 0 1 2 3 3 3 3 3 3 3 3 1 0 0 0 0 0 0 0 1 2 1 0 0 0 0 0 0 0 0
0 0 0 0 0 0 0 0 0 0 0 0 0 0 0 0 0 0 0 0 0 2 3 3 2 2 3 3 3 3 2 1 0 0 0 0 0 0 1 2 2 1 0 0 0 0 0 0 0
0 0 0 0 0 0 0 0 0 0 0 0 0 0 0 0 0 0 0 0 1 2 4 3 1 1 2 3 3 3 3 1 0 0 0 0 0 0 0 1 2 1 0 0 0 0 0 0 0
0 0 0 0 0 0 0 0 0 0 0 0 0 0 0 0 0 0 0 0 1 2 4 3 1 0 1 3 3 3 3 2 1 1 0 0 0 0 0 1 1 1 0 0 0 0 0 0 0
0 0 0 0 0 0 0 0 0 0 0 0 0 0 0 0 0 0 0 0 0 1 4 4 3 1 1 2 3 3 3 3 2 1 0 0 0 0 0 0 0 1 1 0 0 0 0 0 0
0 0 0 0 0 0 0 0 0 0 0 0 0 0 0 0 0 0 0 0 0 0 2 3 2 1 1 2 1 1 2 2 2 1 0 0 0 0 0 0 0 0 1 0 0 0 0 0 0
0 0 0 0 0 0 0 1 1 1 0 0 0 0 0 0 0 0 0 0 0 0 0 1 1 1 1 2 1 0 0 1 1 0 0 0 0 0 0 0 0 0 0 0 0 0 0 0 0
0 0 0 0 0 0 1 2 2 1 0 0 0 0 0 0 0 0 0 0 0 0 0 0 1 2 2 2 1 1 0 1 1 1 0 1 1 1 0 0 0 0 0 0 0 0 0 0 0
0 0 0 0 0 0 1 2 2 1 0 0 0 0 0 0 0 0 0 0 0 0 0 1 1 2 1 1 2 2 1 1 1 1 1 2 2 2 1 0 0 0 0 0 0 0 0 0 0
0 0 0 0 0 0 1 1 1 0 0 0 0 0 0 0 0 0 0 0 0 0 0 1 1 1 0 0 1 2 1 1 0 0 1 2 3 3 2 1 0 0 0 0 0 0 0 0 0
0 0 0 0 0 0 0 1 0 0 0 0 0 0 0 0 0 0 0 0 0 0 0 1 1 0 0 0 0 1 1 0 0 0 1 2 3 3 2 1 0 0 0 0 0 0 0 0 0
0 0 0 0 0 0 0 1 0 0 0 0 0 0 0 0 0 0 0 0 0 0 0 0 0 0 0 0 0 0 0 0 0 0 0 2 3 3 2 1 0 0 0 0 0 0 0 0 0
0 0 0 0 0 0 0 0 0 0 0 0 0 0 0 0 0 0 0 0 0 0 0 0 0 0 0 0 0 0 0 0 0 0 0 2 3 3 1 0 0 0 0 0 0 0 0 0 0
0 0 0 0 0 0 0 0 0 0 0 0 0 0 0 0 0 0 0 0 0 0 0 0 0 0 0 0 0 0 0 0 0 0 0 1 3 2 1 0 0 0 0 0 0 0 0 0 0
0 0 0 0 0 0 0 0 0 0 0 0 0 0 0 0 0 0 0 0 0 0 0 0 0 0 0 0 0 0 0 0 0 0 0 1 2 2 1 0 0 0 0 0 0 0 0 0 0
0 0 0 0 0 0 0 0 0 0 0 0 0 0 0 0 0 0 0 0 0 0 0 0 0 0 0 0 0 0 0 0 0 0 0 1 2 2 1 0 0 0 0 0 0 0 0 0 0
0 0 0 0 0 0 0 0 0 0 0 0 0 0 0 0 0 0 0 0 0 0 0 0 0 0 0 0 0 0 0 0 0 0 0 0 1 2 1 0 0 0 0 0 0 0 0 0 0
0 0 0 0 0 0 0 0 0 0 0 0 0 0 0 0 0 0 0 0 0 0 0 0 0 0 0 0 0 0 0 0 0 0 0 0 1 2 1 0 0 0 0 0 0 0 0 0 0
0 0 0 0 0 0 0 0 0 0 0 0 0 0 0 0 0 0 0 0 0 0 0 0 0 0 0 0 0 0 0 0 0 0 0 0 1 1 1 0 0 0 0 0 0 0 0 0 0
0 0 0 0 0 0 0 0 0 0 0 0 0 0 0 0 0 0 0 0 0 0 0 0 0 0 0 0 0 0 0 0 0 0 0 0 0 0 0 0 0 0 0 0 0 0 0 0 0
0 0 0 0 0 0 0 0 0 0 0 0 0 0 0 0 0 0 0 0 0 0 0 0 0 0 0 0 0 0 0 0 0 0 0 0 0 0 0 0 0 0 0 0 0 0 0 0 0
0 0 0 0 0 0 0 0 0 0 0 0 0 0 0 0 0 0 0 0 0 0 0 0 0 0 0 0 0 0 0 0 0 0 0 0 0 0 0 0 0 0 0 0 0 0 0 0 0
0 0 0 0 0 0 0 0 0 0 0 0 0 0 0 0 0 0 0 0 0 0 0 0 0 0 0 0 0 0 0 0 0 0 0 0 0 0 0 0 0 0 0 0 0 0 0 0 0
0 0 0 0 0 0 0 0 0 0 0 0 0 0 0 0 0 0 0 0 0 0 0 0 0 0 0 0 0 0 0 0 0 0 0 0 0 0 0 0 0 0 0 0 0 0 0 0 0
0 0 0 0 0 0 0 0 0 0 0 0 0 0 0 0 0 0 0 0 0 0 0 0 0 0 0 0 0 0 0 0 0 0 0 0 0 0 0 0 0 0 0 0 0 0 0 0 0
0 0 0 0 0 0 0 0 0 0 0 0 0 0 0 0 0 0 0 0 0 0 0 0 0 0 0 0 0 0 0 0 0 0 0 0 0 0 0 0 0 0 0 0 0 0 0 0 0
0 0 0 0 0 0 0 0 0 0 0 0 0 0 0 0 0 0 0 0 0 0 0 0 0 0 0 0 0 0 0 0 0 0 0 0 0 0 0 0 0 0 0 0 0 0 0 0 0
0 0 0 0 0 0 0 0 0 0 0 0 0 0 0 0 0 0 0 0 0 0 0 0 0 0 0 0 0 0 0 0 0 0 0 0 0 0 0 0 0 0 0 0 0 0 0 0 0
Wind_Speed
11 8 5 3 3 4 5 3 0 2 4 5 6 4 5 6 5 5 3 3 6 7 8 7 7 8 8 8 8 8 7 7 7 7 7 7 7 7 8 8 8 8 8 9 9 9 9 10 10
8 6 3 3 4 4 4 2 1 4 5 4 4 3 3 5 6 6 3 3 5 7 7 7 7 8 8 8 8 8 7 7 7 7 7 7 7 7 7 7 7 7 7 8 8 8 8 9 8
7 5 3 2 3 4 1 2 5 6 6 3 2 3 3 4 5 4 3 3 4 6 6 8 8 8 8 8 8 7 7 6 6 6 6 6 6 7 7 7 7 7 7 7 7 7 7 7 7
3 2 3 3 4 4 3 2 4 4 4 2 1 3 4 5 4 4 4 4 5 6 6 8 8 8 8 7 7 7 6 6 6 6 5 6 6 6 6 7 7 6 6 6 6 6 6 6 6
3 2 3 4 5 3 2 3 2 2 2 2 0 2 3 3 5 5 4 4 4 5 6 7 7 7 7 7 7 6 6 5 5 5 5 5 5 6 6 6 6 6 5 6 5 5 5 5 5
2 3 4 5 4 2 0 2 1 1 1 1 0 1 4 4 5 4 4 3 4 5 5 6 6 7 7 6 6 6 6 5 4 4 5 4 4 4 5 5 5 5 5 5 4 4 4 4 3
3 3 4 4 3 3 1 1 1 1 0 2 2 1 4 4 4 4 4 3 3 4 4 4 4 5 5 5 5 5 5 4 4 4 4 4 3 3 4 4 4 4 4 4 4 4 3 3 3
3 2 4 4 3 1 2 1 2 3 2 2 2 0 2 5 4 4 3 3 3 3 3 3 4 4 4 4 4 5 5 4 4 4 3 2 2 3 3 3 3 3 3 3 3 3 3 2 2
4 3 3 3 2 0 2 1 1 2 1 1 1 2 4 6 4 4 3 2 2 3 3 3 3 3 3 4 5 5 4 4 4 3 3 2 1 2 2 3 3 2 2 2 2 2 2 2 2
2 3 3 2 3 2 2 1 1 1 2 2 1 2 5 5 4 4 4 4 3 3 3 3 3 3 3 3 4 3 3 3 2 2 2 1 1 1 1 2 2 1 0 1 1 1 2 2 1
1 2 1 2 3 2 1 2 2 3 3 2 2 3 4 4 4 4 4 4 4 4 3 3 3 3 3 2 2 2 2 2 2 2 1 1 1 1 1 1 1 1 1 0 1 1 1 1 1
1 2 2 2 2 2 1 1 2 4 3 2 1 2 4 5 5 6 5 5 4 4 4 3 3 3 3 2 2 2 2 2 2 2 1 1 1 1 1 1 1 1 1 0 0 0 1 1 1
4 2 2 1 1 1 2 3 4 6 4 2 2 3 5 6 6 5 4 3 3 4 4 4 4 4 3 2 2 2 2 2 2 2 1 1 1 1 1 1 1 1 1 1 0 0 1 1 2
1 2 3 3 3 2 3 4 4 7 4 4 4 4 5 6 5 5 5 4 4 4 4 4 4 4 3 3 2 2 2 2 2 2 2 2 1 1 1 1 1 1 1 1 1 1 1 1 1
1 2 4 5 4 3 1 6 7 7 5 5 5 5 5 5 5 5 5 5 4 4 4 5 5 4 4 3 3 2 2 2 2 2 2 2 1 1 1 1 1 1 0 1 0 0 1 1 1
4 4 4 3 4 4 3 7 4 4 5 6 6 6 5 5 5 4 4 4 4 3 4 4 4 4 4 4 3 2 2 2 2 2 2 2 2 2 1 1 1 1 0 0 1 1 0 1 1
5 5 4 3 4 4 5 7 4 3 5 6 6 5 4 3 3 3 3 4 4 4 4 4 4 4 4 4 3 2 2 2 2 2 2 2 2 2 1 1 1 1 1 1 1 0 1 1 1
3 4 4 3 3 4 6 8 7 5 6 6 5 4 3 3 3 2 2 3 3 4 4 4 4 4 3 3 2 2 2 2 1 2 2 2 2 2 1 1 2 2 1 1 0 1 1 1 1
4 4 5 4 1 3 7 10 10 7 7 6 5 4 3 3 2 3 3 3 3 3 4 4 4 3 3 3 3 2 2 2 2 2 2 2 2 2 2 1 2 2 2 2 2 1 1 1 0
4 5 5 3 0 3 6 11 10 7 6 5 4 4 4 3 2 2 3 3 3 4 4 4 3 3 3 3 2 2 2 2 2 2 2 2 2 3 2 2 2 2 2 2 2 1 1 1 1
5 5 4 3 5 5 5 9 6 5 4 4 4 3 3 2 2 2 2 2 2 3 3 3 3 3 3 2 2 1 1 1 1 1 1 2 2 3 3 2 2 2 2 3 3 2 2 1 2
4 1 2 3 3 3 2 6 5 4 3 4 4 3 2 1 1 1 2 3 2 2 2 3 3 3 2 3 3 3 2 2 2 1 1 1 2 2 3 3 2 2 2 2 3 2 2 2 2
1 2 3 3 3 4 4 4 7 2 3 4 3 3 2 1 2 2 2 2 2 2 2 2 3 3 2 2 3 3 2 2 1 1 1 1 1 2 2 2 2 2 2 2 2 2 2 2 2
1 2 2 2 2 5 5 5 7 3 3 2 3 3 3 2 2 3 3 3 2 2 2 2 3 2 3 3 3 3 3 2 2 1 2 1 1 1 1 2 2 2 2 3 3 3 3 3 3
1 1 1 1 2 6 2 4 7 3 1 3 4 3 2 2 2 2 3 2 2 2 2 1 2 2 2 3 3 3 2 3 3 2 2 2 1 1 2 2 2 2 2 3 2 3 3 3 3
3 2 2 3 3 3 2 6 5 1 3 4 3 2 2 2 2 2 3 2 2 2 1 1 1 2 2 2 2 2 2 2 2 2 2 2 2 2 2 2 2 2 2 2 2 2 3 2 3
2 2 1 1 2 3 5 4 3 1 1 1 1 1 1 1 2 2 2 2 2 2 1 1 1 1 1 1 1 2 2 1 1 1 1 1 1 1 2 2 2 2 2 3 3 2 3 2 3
2 1 1 2 2 4 6 5 4 3 3 2 2 2 1 1 1 1 2 2 2 2 1 2 2 2 1 1 1 1 1 1 1 1 1 1 1 1 2 2 2 2 2 2 2 2 2 3 3
2 2 3 2 2 3 4 5 1 3 4 4 4 3 2 2 2 1 1 2 2 2 2 2 2 2 1 1 1 1 1 1 1 1 1 1 1 1 2 2 2 2 2 2 3 3 3 4 3
2 3 4 3 4 4 4 7 2 2 2 2 2 2 2 2 2 1 1 2 2 2 2 1 2 1 1 1 1 1 1 1 0 1 1 1 2 2 2 2 2 3 3 3 3 3 3 4 4
Wind_Direction
308 286 271 263 238 230 241 245 143 91 76 46 33 25 30 27 28 95 117 76 95 110 123 129 117 117 113 110 106 107 106 101 98 95 90 85 83 82 81 84 82 79 76 73 72 70 68 69 65
299 290 267 247 243 233 235 221 123 65 75 77 50 28 50 63 63 94 97 73 100 113 125 129 119 119 115 111 105 102 104 101 99 96 92 87 81 79 77 80 82 81 78 73 71 69 67 67 63
277 266 256 242 240 250 264 49 87 83 77 79 81 34 28 62 81 90 89 92 96 105 115 122 122 122 119 115 111 105 101 98 98 95 91 87 81 79 77 76 79 79 76 72 69 67 65 64 60
272 234 239 243 244 270 311 32 73 100 88 61 76 96 81 44 56 80 103 100 99 100 106 120 125 126 123 119 115 111 107 102 99 98 92 88 85 81 77 77 75 75 73 72 69 63 62 61 58
238 243 223 229 242 260 328 19 67 108 125 123 140 115 97 66 77 98 108 101 99 100 104 120 123 127 126 125 121 116 112 108 103 99 94 92 92 88 84 79 72 69 69 67 65 59 60 56 52
245 242 232 229 224 210 346 348 349 77 100 101 125 118 99 107 103 109 111 103 100 101 107 118 124 126 128 129 127 125 120 115 109 101 95 95 97 94 90 84 75 67 65 64 62 56 54 51 43
264 253 254 252 233 217 183 34 358 330 48 39 2 81 120 129 112 115 116 109 102 101 107 119 133 133 132 131 131 128 122 118 111 100 96 90 93 98 90 82 79 68 62 58 54 50 45 39 25
290 273 250 251 245 229 117 94 23 350 21 39 4 166 128 135 122 122 125 119 112 109 115 132 140 142 147 144 140 132 127 121 114 103 100 104 112 119 113 96 84 69 60 50 42 41 34 23 6
280 254 254 275 277 47 96 102 46 17 55 55 37 25 82 122 137 138 139 141 140 139 141 147 145 150 157 154 144 140 138 137 136 130 140 162 168 139 133 109 96 81 58 41 32 21 3 347 331
264 250 265 321 349 17 28 16 354 240 231 221 177 127 117 131 150 162 173 179 178 168 164 159 156 154 149 155 150 155 159 159 163 150 160 185 134 119 118 122 137 143 105 358 359 326 317 306 294
264 251 269 339 13 13 9 341 311 263 261 240 203 169 150 160 176 191 198 195 189 174 166 157 155 149 143 149 158 155 152 157 163 156 158 146 134 140 135 135 146 158 152 103 3 325 300 312 318
225 300 287 292 342 352 327 291 287 262 256 322 335 180 177 188 198 203 204 201 186 174 176 165 155 155 156 155 164 153 150 160 161 158 164 144 147 151 147 152 163 162 140 152 255 296 326 328 320
212 232 267 282 290 297 292 263 267 262 257 254 224 197 196 204 212 211 204 193 183 184 178 171 159 164 159 155 168 156 160 167 161 149 167 149 158 174 161 185 172 179 163 167 206 308 295 317 314
201 224 240 244 234 240 260 267 251 255 236 228 219 212 212 215 209 204 200 198 189 184 179 168 166 170 165 165 165 166 163 162 159 158 166 169 175 185 188 204 200 201 186 166 185 245 272 268 294
200 238 245 225 216 194 255 270 230 235 226 230 229 224 219 220 212 212 205 196 189 181 176 172 174 173 171 173 177 169 168 163 165 166 170 172 183 191 193 192 197 199 196 177 184 231 284 286 307
224 234 237 196 192 180 199 260 239 204 211 228 232 232 226 220 212 204 194 188 178 176 175 176 177 176 178 177 178 177 170 164 168 168 170 173 184 183 181 182 200 168 162 192 190 178 289 291 290
216 239 243 205 192 191 211 252 250 215 219 234 237 237 229 221 211 194 185 182 179 178 171 170 172 178 181 182 176 175 167 168 171 166 168 175 181 184 173 180 185 171 160 194 221 182 191 268 294
233 247 258 239 192 206 229 251 260 247 236 242 239 239 228 224 223 182 173 171 169 167 166 169 171 175 173 173 171 165 162 172 166 169 175 172 182 181 170 185 184 176 165 181 194 232 272 236 268
292 276 276 280 273 247 245 257 261 249 242 241 233 232 229 233 217 165 171 160 153 155 157 165 171 168 160 169 174 173 185 185 181 185 171 177 186 180 176 193 191 180 183 194 195 200 239 264 284
267 270 277 285 267 267 269 269 258 240 233 234 226 223 230 229 212 177 162 153 158 165 161 163 171 163 169 184 182 174 167 179 179 180 181 190 192 183 185 190 201 188 185 188 191 192 222 248 226
255 246 265 294 310 258 273 280 238 221 210 223 229 233 233 221 198 164 141 143 148 156 162 172 172 167 175 169 151 132 130 129 158 189 199 206 197 181 178 189 194 198 190 192 198 196 202 229 259
257 285 289 289 299 281 256 289 261 208 203 215 219 216 210 204 167 153 140 142 143 147 149 164 165 157 163 160 162 168 175 189 200 193 196 212 198 182 178 185 192 198 205 204 210 208 209 203 235
300 332 279 271 269 285 241 251 275 212 229 219 197 179 162 150 148 134 122 130 130 127 142 162 155 148 149 162 171 178 190 200 186 156 181 219 200 181 177 183 190 203 210 209 213 217 211 212 217
324 311 270 262 262 267 230 215 273 232 224 188 168 155 148 138 128 119 115 114 116 124 131 152 150 152 152 164 172 181 187 185 182 182 195 217 202 194 188 185 193 209 212 215 215 219 216 223 225
307 21 352 303 248 253 201 217 252 244 173 158 159 163 148 121 122 120 124 130 126 123 125 127 149 154 153 163 182 188 186 186 195 201 198 204 205 212 215 206 210 213 215 220 216 224 226 224 226
225 222 194 235 257 279 242 235 252 78 80 83 97 120 124 126 134 135 137 135 127 121 114 124 144 146 155 173 186 183 183 188 202 213 204 210 217 218 214 216 223 224 218 221 219 230 231 225 229
212 224 287 274 290 279 258 245 271 104 93 115 121 106 128 138 131 137 135 130 123 125 134 142 137 125 136 146 157 171 177 182 208 229 215 218 224 226 212 214 222 222 217 215 215 230 230 223 229
277 290 177 198 237 265 268 242 239 230 223 189 174 179 192 148 121 124 131 132 125 127 131 128 128 137 129 106 117 131 168 182 202 226 239 243 237 217 207 215 213 216 222 216 211 222 226 230 238
199 206 218 228 238 232 275 266 258 182 184 189 196 181 168 162 159 132 90 106 108 100 108 120 120 112 105 107 104 113 128 153 174 224 245 247 248 223 217 217 214 219 221 216 214 226 226 232 242
224 204 178 192 247 238 258 270 328 54 116 153 183 185 167 148 139 126 109 101 98 95 82 77 88 93 109 128 111 105 87 79 166 246 247 237 239 236 230 225 227 235 229 221 222 229 235 234 239